Tracking 31030 objects as of 15-Jul-2025
HD Live streaming from Space Station
objects crossing your sky now

FENGYUN 1C DEB

Track FENGYUN 1C DEB now!
10-day predictions


NORAD ID: 30348
Int'l Code: 1999-025ABK
Perigee: 772.5 km
Apogee: 804.4 km
Inclination: 98.9 °
Period: 100.5 minutes
Semi major axis: 7159 km
RCS: 0.044 m2 (small)
Launch date: May 10, 1999
Source: People's Republic of China (PRC)
Launch site: Taiyaun Space Center, China (TSC)

Note: This is SATELLITE DEBRIS
Your satellite tracking list
Your tracking list is empty




NASA's NSSDC Master Catalog

Two Line Element Set (TLE):
1 30348U 99025ABK 25195.75107134  .00003009  00000-0  11102-2 0  9992
2 30348  98.8654 286.7905 0022256 100.1982  26.2361 14.33113417953707
Source of the keplerian elements: AFSPC